UAE9737 EINN-WMKK

Flight info

Callsign UAE9737
Flight time N/A
Altitude 33000
Route ABAGU3B ABAGU DCT BEPAN DCT LANON DCT FITBO DCT ADMIS DCT MOMIC DCT WOODY DCT SORAT DCT BIGSU DCT TIKNI DCT GORKO DCT TIPAM DCT MIKOV DCT NORAH DCT ENIMA DCT DINRO N743 UDROS/N0479F350 UM859 KARDE UN644 ROLIN N644 LAGAS M747 SUBUT T923 ERLEV M11 RODAR A909 LEMOD N644 PAGMA/N0485F370 N644 DI M875 KAKID M770 DABEN/N0483F390 M770 OBMOG L515 PUT B579 VPL Y503 RINBA Y507 KAKAK KAKAK1G
Aircraft B77L/H-SDE1E2E3FGHIJ2J3J4J5M1RWXY/LB1D1

Departure

Time N/A
Airport Shannon Airport (EINN)

Arrival

Time 2026-05-07 10:50
Airport Kuala Lumpur International Airport (WMKK)
Time Latitude Longitude Altitude Speed Heading
2026-05-07 08:50 14.37153 93.78404 32817 ft 513 kts 134°
2026-05-07 08:50 14.34661 93.81104 32818 ft 513 kts 134°
2026-05-07 08:50 14.29780 93.86387 32831 ft 512 kts 134°
2026-05-07 08:51 14.24860 93.91710 32819 ft 513 kts 134°
2026-05-07 08:51 14.19937 93.97033 32813 ft 513 kts 134°
2026-05-07 08:52 14.15015 94.02350 32821 ft 513 kts 133°
2026-05-07 08:52 14.10093 94.07664 32819 ft 513 kts 133°
2026-05-07 08:53 14.05166 94.12979 32815 ft 513 kts 133°
2026-05-07 08:53 14.00230 94.18301 32819 ft 513 kts 133°
2026-05-07 08:54 13.95298 94.23616 32815 ft 513 kts 133°
2026-05-07 08:54 13.90360 94.28933 32814 ft 513 kts 133°
2026-05-07 08:55 13.85424 94.34245 32817 ft 514 kts 133°
2026-05-07 08:55 13.80516 94.39522 32819 ft 514 kts 133°
2026-05-07 08:56 13.75577 94.44830 32819 ft 513 kts 133°
2026-05-07 08:56 13.70634 94.50139 32817 ft 513 kts 133°
2026-05-07 08:57 13.65697 94.55437 32810 ft 513 kts 133°
2026-05-07 08:57 13.60756 94.60737 32811 ft 513 kts 133°
2026-05-07 08:58 13.55815 94.66034 32812 ft 513 kts 133°
2026-05-07 08:58 13.50907 94.71291 32812 ft 513 kts 133°
2026-05-07 08:59 13.45969 94.76577 32817 ft 513 kts 133°
2026-05-07 08:59 13.41025 94.81866 32820 ft 513 kts 133°
2026-05-07 09:00 13.36089 94.87144 32817 ft 513 kts 133°
2026-05-07 09:00 13.31143 94.92428 32816 ft 512 kts 133°
2026-05-07 09:01 13.26188 94.97720 32812 ft 513 kts 133°
2026-05-07 09:01 13.21235 95.03005 32814 ft 514 kts 133°
2026-05-07 09:02 13.16309 95.08259 32821 ft 514 kts 133°
2026-05-07 09:02 13.11351 95.13544 32819 ft 515 kts 133°
2026-05-07 09:03 13.06372 95.18848 32818 ft 515 kts 133°
2026-05-07 09:03 13.01401 95.24139 32814 ft 514 kts 133°
2026-05-07 09:04 12.96438 95.29420 32813 ft 514 kts 133°
2026-05-07 09:04 12.91501 95.34670 32817 ft 513 kts 133°
2026-05-07 09:05 12.86550 95.39932 32814 ft 512 kts 133°
2026-05-07 09:05 12.81592 95.45157 32812 ft 511 kts 134°
2026-05-07 09:06 12.76585 95.50320 32810 ft 510 kts 134°
2026-05-07 09:06 12.71579 95.55471 32810 ft 509 kts 134°
2026-05-07 09:07 12.66580 95.60629 32812 ft 510 kts 134°
2026-05-07 09:07 12.61600 95.65773 32817 ft 511 kts 134°
2026-05-07 09:08 12.56582 95.70954 32816 ft 512 kts 134°
2026-05-07 09:08 12.51558 95.76137 32817 ft 513 kts 134°
2026-05-07 09:09 12.46526 95.81325 32811 ft 513 kts 134°
2026-05-07 09:09 12.41499 95.86504 32820 ft 513 kts 134°
2026-05-07 09:10 12.36461 95.91693 32820 ft 513 kts 134°
2026-05-07 09:10 12.31465 95.96835 32808 ft 513 kts 134°
2026-05-07 09:11 12.26436 96.02008 32812 ft 513 kts 134°
2026-05-07 09:11 12.21396 96.07189 32810 ft 514 kts 134°
2026-05-07 09:12 12.16357 96.12367 32812 ft 514 kts 134°
2026-05-07 09:12 12.11305 96.17555 32815 ft 515 kts 134°
2026-05-07 09:13 12.06249 96.22744 32809 ft 515 kts 134°
2026-05-07 09:13 12.01185 96.27938 32814 ft 516 kts 134°
2026-05-07 09:14 11.96123 96.33129 32815 ft 516 kts 134°
2026-05-07 09:14 11.91082 96.38275 32810 ft 516 kts 136°
2026-05-07 09:15 11.88268 96.40547 32801 ft 517 kts 147°
2026-05-07 09:15 11.85054 96.42213 32811 ft 517 kts 157°
2026-05-07 09:15 11.78449 96.45101 32820 ft 517 kts 154°
2026-05-07 09:16 11.72001 96.48358 32806 ft 518 kts 152°
2026-05-07 09:16 11.65575 96.51704 32808 ft 518 kts 152°
2026-05-07 09:17 11.59135 96.55020 32805 ft 519 kts 153°
2026-05-07 09:17 11.52697 96.58301 32807 ft 519 kts 153°
2026-05-07 09:18 11.46234 96.61582 32811 ft 519 kts 153°
2026-05-07 09:18 11.39810 96.64843 32805 ft 518 kts 153°
2026-05-07 09:19 11.33344 96.68127 32809 ft 518 kts 153°
2026-05-07 09:19 11.26885 96.71406 32809 ft 518 kts 153°
2026-05-07 09:20 11.20428 96.74682 32809 ft 518 kts 153°
2026-05-07 09:20 11.13982 96.77951 32799 ft 518 kts 153°
2026-05-07 09:21 11.07538 96.81218 32807 ft 517 kts 153°
2026-05-07 09:21 11.01096 96.84481 32802 ft 517 kts 153°
2026-05-07 09:22 10.94705 96.87717 32799 ft 516 kts 153°
2026-05-07 09:22 10.88285 96.90967 32799 ft 515 kts 153°
2026-05-07 09:23 10.81866 96.94214 32803 ft 515 kts 153°
2026-05-07 09:23 10.75455 96.97456 32800 ft 514 kts 153°
2026-05-07 09:24 10.69043 97.00697 32803 ft 514 kts 153°
2026-05-07 09:24 10.62635 97.03934 32805 ft 514 kts 153°
2026-05-07 09:25 10.56224 97.07171 32799 ft 514 kts 153°
2026-05-07 09:25 10.49819 97.10404 32799 ft 514 kts 153°
2026-05-07 09:26 10.44496 97.13089 32706 ft 514 kts 152°
2026-05-07 09:26 10.41290 97.14706 32313 ft 513 kts 152°
2026-05-07 09:26 10.37038 97.16849 31831 ft 506 kts 152°
2026-05-07 09:27 10.34963 97.17895 31606 ft 503 kts 152°
2026-05-07 09:27 10.31834 97.19471 31397 ft 497 kts 152°
2026-05-07 09:27 10.24742 97.23044 32438 ft 486 kts 152°
2026-05-07 09:28 10.22701 97.24072 32733 ft 485 kts 152°
2026-05-07 09:28 10.16562 97.27166 32809 ft 499 kts 152°
2026-05-07 09:29 10.10321 97.30309 32813 ft 509 kts 152°
2026-05-07 09:29 10.03929 97.33524 32810 ft 514 kts 152°
2026-05-07 09:30 9.97529 97.36745 32798 ft 513 kts 152°
2026-05-07 09:30 9.91136 97.39988 32802 ft 513 kts 152°
2026-05-07 09:31 9.84760 97.43228 32803 ft 512 kts 152°
2026-05-07 09:31 9.78394 97.46459 32799 ft 512 kts 152°
2026-05-07 09:32 9.72024 97.49688 32801 ft 511 kts 152°
2026-05-07 09:32 9.65658 97.52913 32800 ft 511 kts 152°
2026-05-07 09:33 9.59324 97.56121 32804 ft 511 kts 152°
2026-05-07 09:33 9.52957 97.59344 32799 ft 512 kts 152°
2026-05-07 09:34 9.46572 97.62575 32801 ft 513 kts 152°
2026-05-07 09:34 9.40188 97.65805 32804 ft 513 kts 152°
2026-05-07 09:35 9.33820 97.69025 32798 ft 515 kts 152°
2026-05-07 09:35 9.27404 97.72267 32805 ft 515 kts 152°
2026-05-07 09:36 9.20982 97.75512 32803 ft 516 kts 152°
2026-05-07 09:36 9.14549 97.78761 32804 ft 516 kts 152°
2026-05-07 09:37 9.08116 97.82009 32802 ft 517 kts 152°
2026-05-07 09:37 9.01685 97.85254 32802 ft 516 kts 152°
2026-05-07 09:38 8.95243 97.88500 32803 ft 517 kts 152°
2026-05-07 09:38 8.88785 97.91752 32811 ft 518 kts 152°
2026-05-07 09:39 8.82324 97.95005 32805 ft 519 kts 152°
2026-05-07 09:39 8.75906 97.98236 32800 ft 519 kts 153°
2026-05-07 09:40 8.69443 98.01488 32806 ft 519 kts 153°
2026-05-07 09:40 8.62980 98.04739 32802 ft 518 kts 153°
2026-05-07 09:41 8.56525 98.07985 32803 ft 517 kts 152°
2026-05-07 09:41 8.50082 98.11228 32798 ft 517 kts 152°
2026-05-07 09:42 8.43693 98.14446 32800 ft 516 kts 152°
2026-05-07 09:42 8.37269 98.17682 32799 ft 516 kts 152°
2026-05-07 09:43 8.30856 98.20911 32792 ft 515 kts 152°
2026-05-07 09:43 8.24434 98.24143 32806 ft 515 kts 153°
2026-05-07 09:44 8.18020 98.27370 32802 ft 513 kts 153°
2026-05-07 09:44 8.11646 98.30594 32800 ft 512 kts 151°
2026-05-07 09:45 8.05956 98.34865 32800 ft 509 kts 138°
2026-05-07 09:45 8.00630 98.39524 32801 ft 510 kts 139°
2026-05-07 09:46 7.95142 98.44110 32777 ft 511 kts 140°
2026-05-07 09:46 7.89617 98.48637 32780 ft 512 kts 140°
2026-05-07 09:47 7.84077 98.53179 32780 ft 512 kts 140°
2026-05-07 09:47 7.78552 98.57723 32779 ft 512 kts 140°
2026-05-07 09:48 7.73032 98.62261 32782 ft 513 kts 140°
2026-05-07 09:48 7.67532 98.66780 32789 ft 513 kts 140°
2026-05-07 09:49 7.62002 98.71325 32791 ft 512 kts 140°
2026-05-07 09:49 7.56475 98.75868 32785 ft 513 kts 140°
2026-05-07 09:50 7.50939 98.80416 32814 ft 514 kts 140°
2026-05-07 09:50 7.45389 98.84974 32797 ft 515 kts 140°
2026-05-07 09:51 7.39835 98.89530 32798 ft 515 kts 140°
2026-05-07 09:51 7.34279 98.94087 32798 ft 515 kts 140°
2026-05-07 09:52 7.28718 98.98648 32808 ft 515 kts 140°
2026-05-07 09:52 7.23160 99.03206 32807 ft 515 kts 140°
2026-05-07 09:53 7.17604 99.07760 32806 ft 515 kts 140°
2026-05-07 09:53 7.12075 99.12291 32801 ft 515 kts 140°
2026-05-07 09:54 7.06513 99.16847 32799 ft 515 kts 140°
2026-05-07 09:54 7.00958 99.21397 32797 ft 514 kts 140°
2026-05-07 09:55 6.95412 99.25938 32792 ft 514 kts 140°
2026-05-07 09:55 6.89863 99.30479 32796 ft 514 kts 140°
2026-05-07 09:56 6.84315 99.35018 32802 ft 514 kts 140°
2026-05-07 09:56 6.78767 99.39556 32790 ft 514 kts 140°
2026-05-07 09:57 6.73222 99.44090 32800 ft 514 kts 140°
2026-05-07 09:57 6.67677 99.48623 32791 ft 513 kts 140°
2026-05-07 09:58 6.62136 99.53152 32795 ft 513 kts 140°
2026-05-07 09:58 6.56582 99.57689 32788 ft 514 kts 140°
2026-05-07 09:59 6.51070 99.62193 32785 ft 514 kts 140°
2026-05-07 09:59 6.45511 99.66717 32778 ft 514 kts 141°
2026-05-07 10:00 6.39827 99.71090 32776 ft 514 kts 142°
2026-05-07 10:00 6.34189 99.75512 32768 ft 513 kts 137°
2026-05-07 10:01 6.29212 99.80645 32799 ft 513 kts 132°
2026-05-07 10:01 6.24324 99.85875 32194 ft 510 kts 133°
2026-05-07 10:01 6.21889 99.88412 31598 ft 499 kts 133°
2026-05-07 10:02 6.19488 99.90881 31000 ft 489 kts 133°
2026-05-07 10:02 6.17122 99.93304 30421 ft 481 kts 133°
2026-05-07 10:02 6.14827 99.95656 29864 ft 474 kts 133°
2026-05-07 10:02 6.12597 99.97946 29239 ft 468 kts 133°
2026-05-07 10:03 6.10340 100.00265 28608 ft 462 kts 133°
2026-05-07 10:03 6.08102 100.02559 27968 ft 456 kts 133°
2026-05-07 10:03 6.05888 100.04820 27349 ft 451 kts 133°
2026-05-07 10:03 6.03697 100.07056 26749 ft 446 kts 133°
2026-05-07 10:04 6.01534 100.09262 26157 ft 441 kts 133°
2026-05-07 10:04 5.99390 100.11451 25574 ft 437 kts 133°
2026-05-07 10:04 5.97267 100.13620 25021 ft 433 kts 133°
2026-05-07 10:04 5.95165 100.15767 24465 ft 429 kts 133°
2026-05-07 10:05 5.93071 100.17906 23919 ft 426 kts 133°
2026-05-07 10:05 5.91002 100.20020 23385 ft 423 kts 133°
2026-05-07 10:05 5.88945 100.22120 22752 ft 420 kts 133°
2026-05-07 10:05 5.86905 100.24203 22124 ft 417 kts 133°
2026-05-07 10:06 5.84875 100.26276 21516 ft 414 kts 133°
2026-05-07 10:06 5.82889 100.28303 20929 ft 411 kts 133°
2026-05-07 10:06 5.80889 100.30345 20337 ft 408 kts 133°
2026-05-07 10:06 5.78915 100.32360 20007 ft 399 kts 133°
2026-05-07 10:07 5.76990 100.34323 19837 ft 395 kts 133°
2026-05-07 10:07 5.75058 100.36295 19797 ft 395 kts 133°
2026-05-07 10:07 5.73139 100.38255 19797 ft 391 kts 133°
2026-05-07 10:07 5.71235 100.40197 19788 ft 390 kts 133°
2026-05-07 10:08 5.69335 100.42136 19791 ft 390 kts 133°
2026-05-07 10:08 5.67431 100.44079 19796 ft 391 kts 133°
2026-05-07 10:08 5.65525 100.46024 19797 ft 391 kts 133°
2026-05-07 10:08 5.63612 100.47974 19793 ft 392 kts 133°
2026-05-07 10:09 5.61704 100.49920 19765 ft 392 kts 133°
2026-05-07 10:09 5.59790 100.51872 19764 ft 392 kts 133°
2026-05-07 10:09 5.57872 100.53828 19764 ft 392 kts 133°
2026-05-07 10:09 5.55959 100.55778 19766 ft 392 kts 133°
2026-05-07 10:10 5.54044 100.57730 19765 ft 392 kts 133°
2026-05-07 10:10 5.52132 100.59679 19768 ft 392 kts 133°
2026-05-07 10:10 5.50222 100.61627 19776 ft 391 kts 133°
2026-05-07 10:10 5.48300 100.63587 19795 ft 411 kts 133°
2026-05-07 10:11 5.46226 100.65704 19800 ft 437 kts 133°
2026-05-07 10:11 5.44065 100.67906 19804 ft 444 kts 133°
2026-05-07 10:11 5.41893 100.70116 19806 ft 445 kts 133°
2026-05-07 10:11 5.39725 100.72324 19819 ft 443 kts 134°
2026-05-07 10:12 5.37376 100.74279 19816 ft 444 kts 147°
2026-05-07 10:12 5.34519 100.75503 19826 ft 451 kts 164°
2026-05-07 10:12 5.31420 100.75983 19830 ft 448 kts 173°
2026-05-07 10:12 5.28301 100.76315 19836 ft 454 kts 171°
2026-05-07 10:13 5.25160 100.76779 19834 ft 457 kts 169°
2026-05-07 10:13 5.22029 100.77296 19829 ft 457 kts 169°
2026-05-07 10:13 5.18892 100.77821 19833 ft 456 kts 169°
2026-05-07 10:13 5.15763 100.78335 19819 ft 455 kts 169°
2026-05-07 10:14 5.13689 100.78668 19812 ft 454 kts 169°
2026-05-07 10:14 5.09565 100.79321 19808 ft 451 kts 169°
2026-05-07 10:14 5.07502 100.79644 19802 ft 450 kts 169°
2026-05-07 10:14 5.04405 100.80128 19812 ft 449 kts 169°
2026-05-07 10:15 5.01320 100.80612 19807 ft 449 kts 169°
2026-05-07 10:15 4.98233 100.81096 19808 ft 449 kts 169°
2026-05-07 10:15 4.95134 100.81583 19812 ft 449 kts 169°
2026-05-07 10:15 4.92044 100.82071 19804 ft 450 kts 169°
2026-05-07 10:16 4.88959 100.82562 19811 ft 451 kts 169°
2026-05-07 10:16 4.85850 100.83056 19811 ft 452 kts 169°
2026-05-07 10:16 4.82734 100.83552 19808 ft 452 kts 169°
2026-05-07 10:16 4.79623 100.84047 19804 ft 453 kts 169°
2026-05-07 10:17 4.76513 100.84541 19789 ft 453 kts 169°
2026-05-07 10:17 4.73400 100.85036 19789 ft 453 kts 169°
2026-05-07 10:17 4.70289 100.85529 19777 ft 453 kts 169°
2026-05-07 10:17 4.67174 100.86023 19770 ft 452 kts 169°
2026-05-07 10:18 4.64110 100.86509 19769 ft 452 kts 169°
2026-05-07 10:18 4.61012 100.87001 19775 ft 451 kts 169°
2026-05-07 10:18 4.57909 100.87494 19770 ft 451 kts 169°
2026-05-07 10:18 4.54808 100.87986 19771 ft 451 kts 169°
2026-05-07 10:19 4.51712 100.88477 19768 ft 451 kts 169°
2026-05-07 10:19 4.48615 100.88969 19771 ft 451 kts 169°
2026-05-07 10:19 4.45530 100.89537 19767 ft 450 kts 163°
2026-05-07 10:19 4.42608 100.90617 19761 ft 447 kts 152°
2026-05-07 10:20 4.39892 100.92104 19781 ft 445 kts 149°
2026-05-07 10:20 4.37159 100.93575 19777 ft 447 kts 150°
2026-05-07 10:20 4.34392 100.94995 19782 ft 448 kts 151°
2026-05-07 10:20 4.31589 100.96389 19776 ft 449 kts 152°
2026-05-07 10:21 4.28777 100.97764 19777 ft 450 kts 152°
2026-05-07 10:21 4.25956 100.99133 19779 ft 450 kts 152°
2026-05-07 10:21 4.23132 101.00501 19775 ft 450 kts 152°
2026-05-07 10:21 4.20314 101.01868 19789 ft 450 kts 152°
2026-05-07 10:22 4.17506 101.03232 19782 ft 449 kts 152°
2026-05-07 10:22 4.14691 101.04601 19784 ft 448 kts 152°
2026-05-07 10:22 4.11882 101.05969 19782 ft 448 kts 152°
2026-05-07 10:22 4.09109 101.07319 19782 ft 448 kts 152°
2026-05-07 10:23 4.06303 101.08685 19782 ft 448 kts 152°
2026-05-07 10:23 4.04465 101.09581 19783 ft 448 kts 152°
2026-05-07 10:23 4.01663 101.10945 19775 ft 448 kts 152°
2026-05-07 10:23 3.98863 101.12308 19777 ft 448 kts 152°
2026-05-07 10:24 3.96059 101.13674 19777 ft 448 kts 152°
2026-05-07 10:24 3.93255 101.15038 19773 ft 448 kts 152°
2026-05-07 10:24 3.90450 101.16404 19774 ft 448 kts 152°
2026-05-07 10:24 3.87645 101.17769 19775 ft 448 kts 152°
2026-05-07 10:25 3.84842 101.19134 19775 ft 448 kts 152°
2026-05-07 10:25 3.82041 101.20497 19775 ft 448 kts 152°
2026-05-07 10:25 3.79269 101.21846 19775 ft 448 kts 152°
2026-05-07 10:25 3.76545 101.23344 19766 ft 445 kts 143°
2026-05-07 10:26 3.74334 101.25450 19776 ft 438 kts 129°
2026-05-07 10:26 3.72301 101.27763 19770 ft 444 kts 130°
2026-05-07 10:26 3.70229 101.30061 19702 ft 442 kts 130°
2026-05-07 10:26 3.68171 101.32299 19151 ft 433 kts 131°
2026-05-07 10:27 3.66122 101.34500 18475 ft 429 kts 131°
2026-05-07 10:27 3.64092 101.36664 17791 ft 424 kts 131°
2026-05-07 10:27 3.62101 101.38783 17049 ft 420 kts 131°
2026-05-07 10:27 3.60112 101.40900 16321 ft 416 kts 131°
2026-05-07 10:28 3.58139 101.43000 15611 ft 411 kts 131°
2026-05-07 10:28 3.56189 101.45076 14901 ft 407 kts 131°
2026-05-07 10:28 3.54258 101.47134 14209 ft 403 kts 131°
2026-05-07 10:28 3.52346 101.49172 13547 ft 399 kts 131°
2026-05-07 10:29 3.50452 101.51190 12790 ft 395 kts 131°
2026-05-07 10:29 3.48581 101.53185 12054 ft 391 kts 132°
2026-05-07 10:29 3.46725 101.55162 11377 ft 387 kts 132°
2026-05-07 10:30 3.43172 101.58947 10875 ft 357 kts 132°
2026-05-07 10:30 3.41473 101.60757 10932 ft 359 kts 132°
2026-05-07 10:30 3.39763 101.62581 10983 ft 359 kts 132°
2026-05-07 10:30 3.38062 101.64393 11004 ft 356 kts 132°
2026-05-07 10:31 3.36370 101.66194 11022 ft 355 kts 132°
2026-05-07 10:31 3.34701 101.67975 11032 ft 356 kts 132°
2026-05-07 10:31 3.33008 101.69780 11027 ft 356 kts 132°
2026-05-07 10:31 3.31310 101.71591 11013 ft 355 kts 132°
2026-05-07 10:32 3.29617 101.73392 11025 ft 355 kts 132°
2026-05-07 10:32 3.27921 101.75197 11019 ft 355 kts 132°
2026-05-07 10:32 3.26252 101.77016 11024 ft 355 kts 130°
2026-05-07 10:32 3.24675 101.78914 11025 ft 355 kts 128°
2026-05-07 10:33 3.23128 101.80842 11012 ft 355 kts 127°
2026-05-07 10:33 3.21586 101.82762 11032 ft 354 kts 128°
2026-05-07 10:33 3.20035 101.84679 11028 ft 355 kts 128°
2026-05-07 10:33 3.18474 101.86597 11022 ft 355 kts 128°
2026-05-07 10:34 3.16910 101.88510 11033 ft 355 kts 128°
2026-05-07 10:34 3.15343 101.90423 11033 ft 355 kts 128°
2026-05-07 10:34 3.13842 101.92367 11024 ft 349 kts 121°
2026-05-07 10:34 3.12941 101.94591 11031 ft 349 kts 105°
2026-05-07 10:35 3.12257 101.96920 11034 ft 356 kts 107°
2026-05-07 10:35 3.11461 101.99258 11018 ft 352 kts 112°
2026-05-07 10:35 3.10221 102.01371 11027 ft 352 kts 126°
2026-05-07 10:35 3.08384 102.02987 11017 ft 357 kts 151°
2026-05-07 10:36 3.05980 102.03629 11027 ft 365 kts 177°
2026-05-07 10:36 3.03472 102.03217 10889 ft 370 kts 196°
2026-05-07 10:36 3.01044 102.02311 10291 ft 375 kts 200°
2026-05-07 10:36 2.98605 102.01351 9473 ft 378 kts 199°
2026-05-07 10:37 2.96117 102.00490 8618 ft 379 kts 196°
2026-05-07 10:37 2.93600 101.99753 7760 ft 367 kts 194°
2026-05-07 10:37 2.91192 101.99143 6924 ft 347 kts 192°
2026-05-07 10:37 2.88894 101.98615 6110 ft 331 kts 191°
2026-05-07 10:38 2.86687 101.98133 5261 ft 318 kts 191°
2026-05-07 10:38 2.84561 101.97676 4549 ft 305 kts 190°
2026-05-07 10:38 2.82569 101.97258 4269 ft 282 kts 190°
2026-05-07 10:38 2.80680 101.96863 4073 ft 280 kts 190°
2026-05-07 10:39 2.78768 101.96464 4011 ft 279 kts 190°
2026-05-07 10:39 2.76891 101.96071 4012 ft 275 kts 190°
2026-05-07 10:39 2.75014 101.95676 4010 ft 275 kts 190°
2026-05-07 10:39 2.73141 101.95282 4007 ft 276 kts 190°
2026-05-07 10:40 2.71266 101.94888 4010 ft 276 kts 190°
2026-05-07 10:40 2.69406 101.94496 4009 ft 276 kts 190°
2026-05-07 10:40 2.67528 101.94101 4008 ft 276 kts 190°
2026-05-07 10:40 2.65658 101.93708 4011 ft 271 kts 190°
2026-05-07 10:41 2.63867 101.93330 3984 ft 254 kts 190°
2026-05-07 10:41 2.62202 101.92978 3983 ft 235 kts 189°
2026-05-07 10:41 2.60662 101.92654 3981 ft 217 kts 190°
2026-05-07 10:41 2.59247 101.92356 3980 ft 200 kts 189°
2026-05-07 10:42 2.57875 101.92068 4017 ft 203 kts 189°
2026-05-07 10:42 2.56496 101.91779 4053 ft 201 kts 189°
2026-05-07 10:42 2.55142 101.91495 4080 ft 197 kts 189°
2026-05-07 10:42 2.53845 101.91222 4030 ft 179 kts 189°
2026-05-07 10:43 2.52773 101.90780 3992 ft 163 kts 218°
2026-05-07 10:43 2.52106 101.89898 4013 ft 164 kts 243°
2026-05-07 10:43 2.51810 101.88792 4018 ft 163 kts 265°
2026-05-07 10:43 2.52191 101.87802 3999 ft 153 kts 325°
2026-05-07 10:44 2.53139 101.87260 4019 ft 162 kts 326°
2026-05-07 10:44 2.53965 101.86507 4021 ft 160 kts 322°
2026-05-07 10:44 2.54842 101.85829 3997 ft 159 kts 327°
2026-05-07 10:44 2.55735 101.85185 3999 ft 158 kts 327°
2026-05-07 10:45 2.56625 101.84546 4016 ft 158 kts 327°
2026-05-07 10:45 2.57524 101.83916 4016 ft 161 kts 327°
2026-05-07 10:45 2.58448 101.83276 4011 ft 163 kts 328°
2026-05-07 10:45 2.59381 101.82633 4007 ft 162 kts 328°
2026-05-07 10:46 2.60309 101.81997 3993 ft 161 kts 328°
2026-05-07 10:46 2.61227 101.81369 3995 ft 158 kts 328°
2026-05-07 10:46 2.62132 101.80753 3996 ft 156 kts 328°
2026-05-07 10:46 2.63036 101.80141 3966 ft 158 kts 329°
2026-05-07 10:47 2.63970 101.79522 3882 ft 163 kts 329°
2026-05-07 10:47 2.64923 101.78888 3771 ft 164 kts 329°
2026-05-07 10:47 2.65864 101.78275 3608 ft 158 kts 329°
2026-05-07 10:47 2.66779 101.77686 3436 ft 156 kts 330°
2026-05-07 10:48 2.67712 101.77080 3084 ft 163 kts 328°
2026-05-07 10:48 2.68639 101.76444 2604 ft 159 kts 327°
2026-05-07 10:48 2.69543 101.75835 2143 ft 154 kts 327°
2026-05-07 10:48 2.70439 101.75239 1767 ft 154 kts 326°
2026-05-07 10:49 2.71352 101.74656 1388 ft 156 kts 326°
2026-05-07 10:49 2.72242 101.74044 1081 ft 155 kts 322°
2026-05-07 10:49 2.73106 101.73406 784 ft 155 kts 323°
2026-05-07 10:49 2.73975 101.72778 462 ft 152 kts 326°
2026-05-07 10:50 2.74842 101.72200 147 ft 147 kts 326°
2026-05-07 10:50 2.75655 101.71656 55 ft 133 kts 326°
2026-05-07 10:50 2.76268 101.71243 52 ft 80 kts 326°
2026-05-07 10:50 2.76522 101.71033 53 ft 33 kts 300°
2026-05-07 10:51 2.76575 101.70921 54 ft 9 kts 287°
2026-05-07 10:51 2.76555 101.70864 53 ft 10 kts 207°
2026-05-07 10:51 2.76486 101.70876 54 ft 11 kts 154°
2026-05-07 10:51 2.76419 101.70919 56 ft 12 kts 146°
2026-05-07 10:52 2.76341 101.70972 52 ft 16 kts 146°
2026-05-07 10:52 2.76211 101.71026 56 ft 18 kts 166°
2026-05-07 10:52 2.76075 101.71054 58 ft 24 kts 163°
2026-05-07 10:52 2.75935 101.71129 54 ft 13 kts 144°
2026-05-07 10:53 2.75836 101.71131 53 ft 20 kts 219°
2026-05-07 10:53 2.75745 101.70995 53 ft 20 kts 238°
2026-05-07 10:53 2.75678 101.70890 54 ft 10 kts 237°
2026-05-07 10:53 2.75665 101.70869 55 ft 1 kts 237°
2026-05-07 10:54 2.75654 101.70858 55 ft 3 kts 215°
2026-05-07 10:54 2.75629 101.70856 56 ft 4 kts 173°
2026-05-07 10:54 2.75596 101.70869 55 ft 6 kts 148°
2026-05-07 10:54 2.75571 101.70886 56 ft 1 kts 147°
2026-05-07 10:55 2.75558 101.70894 54 ft 0 kts 147°